GW0019 Weather Reports


time (UTC)temp
F
wind
direction
speed
knots
gust
knots
rain 1hr
in
rain 24hr
in
rain mn
in
humidity
%
barometer
mb
20260504210010 79 240 4.3 14.8 0.00 0.00 0.00 75 1011.7
20260504205508 78 213 7.8 20.9 0.00 0.00 0.00 75 1011.6
20260504205006 79 264 7.8 15.6 0.00 0.00 0.00 75 1011.7
20260504204504 78 200 7.8 22.6 0.00 0.00 0.00 75 1011.8
20260504204003 79 236 4.3 18.2 0.00 0.00 0.00 75 1011.8
20260504203500 79 249 7.8 16.5 0.00 0.00 0.00 75 1011.8
20260504202956 80 256 13.9 17.4 0.00 0.00 0.00 75 1012.1
20260504202453 80 225 3.5 13.9 0.00 0.00 0.00 75 1012.0
20260504201950 79 216 1.7 13.0 0.00 0.00 0.00 75 1012.0
20260504201447 78 230 22.6 23.5 0.00 0.00 0.00 75 1012.0
20260504200944 78 209 15.6 19.1 0.00 0.00 0.00 75 1012.2
20260504200441 79 247 14.8 20.0 0.00 0.00 0.00 75 1012.2
20260504195938 79 206 4.3 18.2 0.00 0.00 0.00 75 1012.3
20260504195433 79 215 26.9 26.9 0.00 0.00 0.00 75 1012.4
20260504194930 78 223 17.4 19.1 0.00 0.00 0.00 75 1012.4
20260504194426 78 261 9.6 19.1 0.00 0.00 0.00 75 1012.4
20260504193922 78 221 1.7 17.4 0.00 0.00 0.00 75 1012.3
20260504193420 78 199 7.8 27.8 0.00 0.00 0.00 75 1012.5
20260504192918 78 221 13.0 18.2 0.00 0.00 0.00 75 1012.5
20260504192415 77 210 13.0 21.7 0.00 0.00 0.00 75 1012.6
20260504191914 78 210 12.2 22.6 0.00 0.00 0.00 75 1012.7
20260504191412 78 198 16.5 16.5 0.00 0.00 0.00 75 1012.7
20260504190907 78 243 7.8 14.8 0.00 0.00 0.00 75 1012.6
20260504190403 77 209 13.9 19.1 0.00 0.00 0.00 75 1012.7
20260504185900 77 222 19.1 21.7 0.00 0.00 0.00 75 1012.8
20260504185357 78 202 5.2 16.5 0.00 0.00 0.00 75 1012.6
20260504184853 78 75 2.6 21.7 0.00 0.00 0.00 75 1013.2
20260504184349 77 211 2.6 19.1 0.00 0.00 0.00 75 1012.8
20260504183845 78 210 5.2 13.0 0.00 0.00 0.00 75 1013.2
20260504183342 77 217 13.9 17.4 0.00 0.00 0.00 75 1012.8
20260504182840 76 255 7.8 19.1 0.00 0.00 0.00 75 1013.1
20260504182337 77 250 8.7 23.5 0.00 0.00 0.00 75 1013.1
20260504181834 76 208 12.2 25.2 0.00 0.00 0.00 74 1013.0
20260504181331 76 188 2.6 21.7 0.00 0.00 0.00 74 1012.8
20260504180830 76 202 5.2 19.1 0.00 0.00 0.00 74 1013.1
20260504180328 76 232 17.4 20.0 0.00 0.00 0.00 74 1013.4
20260504175826 76 219 8.7 17.4 0.00 0.00 0.00 75 1013.1
20260504175322 76 184 1.7 17.4 0.00 0.00 0.00 75 1013.3
20260504174821 75 205 10.4 21.7 0.00 0.00 0.00 74 1013.5
20260504174318 75 225 7.0 24.3 0.00 0.00 0.00 74 1013.2
20260504173814 75 195 7.8 16.5 0.00 0.00 0.00 74 1013.4
20260504173311 75 232 3.5 20.9 0.00 0.00 0.00 74 1013.6
20260504172808 75 196 4.3 17.4 0.00 0.00 0.00 74 1013.5
20260504172305 75 254 8.7 17.4 0.00 0.00 0.00 74 1013.4
20260504171800 75 213 7.8 15.6 0.00 0.00 0.00 74 1013.7
20260504171258 75 245 14.8 19.1 0.00 0.00 0.00 74 1013.5
20260504170755 75 200 2.6 23.5 0.00 0.00 0.00 74 1013.6
20260504170252 75 190 6.1 20.9 0.00 0.00 0.00 74 1013.8
20260504160210 73 241 3.5 20.0 0.00 0.00 0.00 74 1014.2
20260504151138 70 196 4.3 24.3 0.00 0.00 0.00 74 1014.7
20260504150636 70 227 15.6 20.0 0.00 0.00 0.00 74 1014.7
20260504150132 70 226 13.9 17.4 0.00 0.00 0.00 74 1014.8
20260504141101 67 264 7.0 21.7 0.00 0.00 0.00 73 1015.2
20260504140558 68 225 16.5 20.9 0.00 0.00 0.00 73 1015.4
20260504130522 65 251 2.6 13.0 0.00 0.00 0.00 73 1015.4
20260504110409 62 224 7.0 11.3 0.00 0.00 0.00 73 1014.9
20260504100326 62 259 0.0 10.4 0.00 0.00 0.00 73 1015.1
20260504081720 63 147 4.3 11.3 0.00 0.00 0.00 73 1015.2
20260504081216 63 225 3.5 14.8 0.00 0.00 0.00 73 1015.3
20260504080713 63 220 5.2 13.0 0.00 0.00 0.00 73 1015.4
20260504080209 63 230 6.1 10.4 0.00 0.00 0.00 73 1015.7
20260504070137 63 219 7.0 11.3 0.00 0.00 0.00 73 1015.8
20260504050526 65 198 6.1 10.4 0.00 0.00 0.00 73 1016.8
20260504050023 65 196 7.8 11.3 0.00 0.00 0.00 73 1016.7
20260504045519 65 206 7.8 12.2 0.00 0.00 0.00 73 1017.0
20260504045015 65 186 2.6 9.6 0.00 0.00 0.00 73 1017.0
20260504044513 65 201 6.1 10.4 0.00 0.00 0.00 73 1016.8
20260504044009 65 195 4.3 9.6 0.00 0.00 0.00 73 1017.1
20260504043506 65 202 7.8 8.7 0.00 0.00 0.00 73 1017.1
20260504043004 65 204 7.8 10.4 0.00 0.00 0.00 73 1017.2
20260504042500 65 204 5.2 8.7 0.00 0.00 0.00 73 1017.1
20260504041957 65 253 5.2 8.7 0.00 0.00 0.00 73 1017.1
20260504041453 65 226 3.5 8.7 0.00 0.00 0.00 73 1017.3
20260504040949 65 219 4.3 8.7 0.00 0.00 0.00 73 1017.5
20260504040447 65 204 6.1 11.3 0.00 0.00 0.00 73 1017.3
20260504035943 65 208 4.3 9.6 0.00 0.00 0.00 73 1017.5
20260504035441 66 229 7.8 10.4 0.00 0.00 0.00 73 1017.4
20260504034937 65 236 4.3 8.7 0.00 0.00 0.00 73 1017.6
20260504034435 66 228 7.8 13.0 0.00 0.00 0.00 73 1017.5
20260504033931 66 204 7.0 8.7 0.00 0.00 0.00 73 1017.6
20260504033429 66 232 4.3 11.3 0.00 0.00 0.00 73 1017.7
20260504032926 66 174 0.9 7.0 0.00 0.00 0.00 73 1017.6
20260504032423 66 217 6.1 7.8 0.00 0.00 0.00 73 1017.7
20260504031920 66 222 5.2 8.7 0.00 0.00 0.00 73 1017.9
20260504031417 65 220 5.2 7.8 0.00 0.00 0.00 73 1017.8
20260504030913 66 193 4.3 7.8 0.00 0.00 0.00 73 1017.7
20260504030410 66 205 6.1 7.0 0.00 0.00 0.00 73 1017.7
20260504025906 66 197 5.2 11.3 0.00 0.00 0.00 73 1017.5
20260504025403 66 199 4.3 7.8 0.00 0.00 0.00 73 1017.9
20260504024900 66 199 4.3 6.1 0.00 0.00 0.00 73 1017.6
20260504024356 66 215 5.2 7.8 0.00 0.00 0.00 73 1017.6
20260504023854 67 182 3.5 7.0 0.00 0.00 0.00 73 1017.6
20260504023350 67 221 6.1 7.8 0.00 0.00 0.00 73 1017.6
20260504022846 67 222 4.3 7.0 0.00 0.00 0.00 73 1017.3
20260504022343 67 202 5.2 7.0 0.00 0.00 0.00 73 1017.3
20260504021840 67 194 4.3 8.7 0.00 0.00 0.00 73 1017.3
20260504021337 68 214 4.3 6.1 0.00 0.00 0.00 73 1017.2
20260504020834 68 208 6.1 6.1 0.00 0.00 0.00 74 1017.4
20260504020331 68 199 6.1 7.8 0.00 0.00 0.00 74 1017.2
20260504015826 68 90 1.7 6.1 0.00 0.00 0.00 74 1017.1
20260504015323 68 199 6.1 7.0 0.00 0.00 0.00 74 1017.1
20260504014819 69 201 4.3 8.7 0.00 0.00 0.00 74 1017.4
20260504014315 69 202 5.2 6.1 0.00 0.00 0.00 74 1017.3
20260504013813 69 198 4.3 8.7 0.00 0.00 0.00 74 1017.1
20260504013311 69 214 3.5 7.0 0.00 0.00 0.00 74 1017.1
20260504012807 69 212 6.1 7.8 0.00 0.00 0.00 74 1017.1
20260504012305 69 205 5.2 7.0 0.00 0.00 0.00 74 1016.8
20260504011802 70 217 5.2 7.0 0.00 0.00 0.00 74 1017.0
20260504011258 70 153 5.2 7.0 0.00 0.00 0.00 74 1016.9
20260504010754 70 194 3.5 6.1 0.00 0.00 0.00 74 1017.0
20260504010250 70 223 6.1 6.1 0.00 0.00 0.00 74 1017.0
20260504005747 71 216 6.1 7.8 0.00 0.00 0.00 74 1016.9
20260504005244 71 204 7.0 8.7 0.00 0.00 0.00 74 1016.8
20260504004742 71 208 7.8 9.6 0.00 0.00 0.00 74 1017.0
20260504004239 72 211 6.1 10.4 0.00 0.00 0.00 74 1017.0
20260504003735 72 204 9.6 9.6 0.00 0.00 0.00 74 1017.0
20260504003232 72 206 7.0 7.8 0.00 0.00 0.00 74 1017.1
20260504002729 72 203 6.1 9.6 0.00 0.00 0.00 74 1016.9
20260504002226 73 203 8.7 9.6 0.00 0.00 0.00 74 1016.9
20260504001724 73 202 7.8 9.6 0.00 0.00 0.00 74 1016.9
20260504001220 73 208 5.2 9.6 0.00 0.00 0.00 74 1016.8
20260504000717 73 204 7.0 9.6 0.00 0.00 0.00 74 1017.0
20260504000214 73 241 5.2 11.3 0.00 0.00 0.00 74 1016.7
20260503235713 74 227 7.8 12.2 0.00 0.00 0.00 74 1017.0
20260503235209 74 198 7.0 13.9 0.00 0.00 0.00 74 1016.9
20260503234707 74 204 6.1 10.4 0.00 0.00 0.00 74 1016.9
20260503234205 74 195 7.8 12.2 0.00 0.00 0.00 74 1017.1
20260503233702 74 205 5.2 13.0 0.00 0.00 0.00 74 1017.1
20260503233157 74 202 6.1 12.2 0.00 0.00 0.00 74 1017.0
20260503232654 75 198 5.2 13.9 0.00 0.00 0.00 74 1017.3
20260503232151 75 191 7.8 10.4 0.00 0.00 0.00 74 1017.3
20260503231650 75 203 5.2 12.2 0.00 0.00 0.00 74 1017.4
20260503231145 76 196 5.2 13.9 0.00 0.00 0.00 74 1017.4
20260503230642 76 254 7.8 7.8 0.00 0.00 0.00 75 1017.5
20260503230140 76 267 2.6 12.2 0.00 0.00 0.00 75 1017.4
20260503225637 76 249 7.0 14.8 0.00 0.00 0.00 75 1017.6
20260503225137 76 222 11.3 14.8 0.00 0.00 0.00 74 1017.5
20260503224634 75 207 6.1 12.2 0.00 0.00 0.00 74 1017.5
20260503224132 75 203 9.6 13.9 0.00 0.00 0.00 74 1017.7
20260503223630 76 228 7.8 11.3 0.00 0.00 0.00 74 1017.8
20260503223126 75 200 6.1 12.2 0.00 0.00 0.00 74 1017.8
20260503222623 76 165 3.5 11.3 0.00 0.00 0.00 74 1017.8
20260503222121 75 205 9.6 15.6 0.00 0.00 0.00 74 1017.8
20260503221619 76 198 9.6 13.9 0.00 0.00 0.00 74 1018.0
20260503221116 75 207 8.7 14.8 0.00 0.00 0.00 74 1018.0
20260503220613 75 214 8.7 13.0 0.00 0.00 0.00 74 1018.0
20260503220110 75 210 8.7 15.6 0.00 0.00 0.00 74 1018.2
20260503215607 75 146 1.7 10.4 0.00 0.00 0.00 74 1018.1
20260503215103 75 180 5.2 7.8 0.00 0.00 0.00 74 1018.2
20260503214602 75 206 0.9 11.3 0.00 0.00 0.00 74 1018.4
20260503214058 75 225 9.6 13.0 0.00 0.00 0.00 74 1018.6
20260503213557 75 231 11.3 12.2 0.00 0.00 0.00 74 1018.4
20260503213053 75 220 0.0 13.9 0.00 0.00 0.00 74 1018.3
20260503212550 75 209 2.6 10.4 0.00 0.00 0.00 74 1018.5
20260503212047 74 234 8.7 19.1 0.00 0.00 0.00 74 1018.4
20260503211545 75 250 6.1 11.3 0.00 0.00 0.00 74 1018.4
20260503211040 75 197 1.7 13.0 0.00 0.00 0.00 74 1018.8
20260503210537 74 224 7.8 11.3 0.00 0.00 0.00 74 1018.8